Back to catalog

QIANFAN-186

AliveCommunicationsPO
NORAD 69404·PAYLOAD·🇨🇳 China

Launched Jun 5, 2026 from Wenchang Space Launch Site

Loading…

Next Passes (next 24 hours)

TLE

FreshSource: Space-Track

Epoch: Sep 14, 2026, 12:49 UTC

1 69404U 26125D   26257.53404142 -.00000001  00000-0 -20206-4 0  9991
2 69404  88.9886 270.9403 0001983  96.4260 263.7117 13.51008201 14008

Track QIANFAN-186 in real time with AllMySat

Download on the App Store